Preview of NWS' New Version of Forecast
This preview is not operational and should not be used for support decisions.
Latest weather observations around

Allen County Airport (KK88)

Using International System of Units (Switch to English Units)
Date/ Time (CST) Wind (kph) Vis. (km) Weather Sky Cond. Temp (°C) Rel. Humidity Wind Chill (°C) Heat Index (°C) Pressure Precip. (cm)
Air Dwpt 6 hour Altimeter (hPa) Sea level (hPa) 1 hr 3 hr 6 hr
Max Min
Notice The following observation data may not be complete
Feb 20 05:35 SW 11 1.61 Clear            %     1009.14        
Notice The following observation data may not be complete
Feb 20 05:15 SW 9 1.61 Clear            %     1009.48        
Notice The following observation data may not be complete
Feb 20 04:55 SSW 7 2.41 Clear            %     1009.48        
Notice The following observation data may not be complete
Feb 20 04:35 S 6 3.22 Cloudy OVC002          %     1009.48        
Notice The following observation data may not be complete
Feb 20 04:15 S 6 4.02 Clear            %     1009.48        
Notice The following observation data may not be complete
Feb 20 03:55 Calm 4.83 Clear            %     1009.82        
Notice The following observation data may not be complete
Feb 20 03:35 SSE 6 4.83 Clear            %     1010.16        
Notice The following observation data may not be complete
Feb 20 03:15 Calm 4.02 Clear            %     1010.16        
Notice The following observation data may not be complete
Feb 20 02:55 ESE 6 3.22 Clear            %     1009.82        
Notice The following observation data may not be complete
Feb 20 02:35 Calm 4.02 Clear            %     1010.5        
Notice The following observation data may not be complete
Feb 20 02:15 E 6 4.83 Clear            %     1010.5        
Notice The following observation data may not be complete
Feb 20 01:55 ESE 7 4.83 Clear            %     1011.18        
Notice The following observation data may not be complete
Feb 20 01:35 E 9 4.02 Clear            %     1010.84        
Notice The following observation data may not be complete
Feb 20 01:15 E 13 4.83 Clear            %     1011.18        
Notice The following observation data may not be complete
Feb 20 00:55 E 7 4.02 Clear            %     1011.85        
Notice The following observation data may not be complete
Feb 20 00:35 E 9 4.02 Clear            %     1012.53        
Feb 20 00:15 ENE 9 4.02 Clear   -2 -2     100% -5   1012.19        
Feb 19 23:55 ENE 9 4.02 Clear   -2 -2     100% -5   1012.53        
Feb 19 23:35 ENE 11 11.27 Clear   -2 -2     100% -6   1013.21        
Feb 19 23:15 ENE 15 16.09 Clear   -2 -2     100% -6   1013.55        
Feb 19 22:55 ENE 13 11.27 Clear   -2 -2     100% -6   1013.55        
Feb 19 22:35 NE 19 8.05 Clear   -2 -2     100% -7   1013.55        
Feb 19 22:15 NE 17 4.02 Clear   -2 -2     100% -7   1014.22        
Feb 19 21:55 NE 13 2.82 Clear   -2 -2     100% -6   1014.9        
Feb 19 21:35 NE 11 2.01 Mostly Cloudy BKN006 BKN016 BKN022 -2 -2     100% -6   1015.58   0    
Feb 19 21:15 NE 15 2.82 Clear   -2 -2     100% -6   1015.92        
Feb 19 20:55 NE 13 2.82 Clear   -2 -2     100% -6   1016.26        
Feb 19 20:35 NE 13 4.02 Cloudy OVC008 -2 -2     100% -6   1016.59        
Feb 19 20:15 ENE 20 4.02 Clear   -2 -2     100% -7   1016.26        
Feb 19 19:50 ENE 26 4.02 Clear   -2 -2     100% -8   1016.26        
Feb 19 19:35 ENE 26 4.02 Clear   -2 -2     100% -9   1016.59        
Feb 19 19:15 ENE 19 8.05 Clear   -2 -2     100% -7   1017.27        
Feb 19 18:55 ENE 20 1.61 Clear   -2 -2     100% -8   1017.27        
Feb 19 18:35 NE 24 1.61 Clear VV007 -2 -2     100% -8   1017.27        
Feb 19 18:15 NE 26 0.8 Clear   -2 -2     100% -8   1017.95        
Feb 19 17:55 NE 19 1.21 Clear   -2 -2     100% -7   1018.96        
Feb 19 17:35 NE 19 1.21 Clear   -1 -1     100% -7   1019.3        
Feb 19 17:15 NE 19 2.01 Clear   -1 -2     92% -6   1019.3        
Feb 19 16:50 NNE 17 16.09 Clear   0 -3     80% -5   1020.32        
Feb 19 16:35 NE 15 16.09 Clear   0 -3     79% -4   1020.32        
Feb 19 16:15 NE 15 16.09 Clear   0 -3     79% -4   1020.32        
Feb 19 15:55 ENE 17 16.09 Clear   0 -3     77% -4   1020.32        
Feb 19 15:35 ENE 19 16.09 Cloudy BKN100 OVC120 0 -3     76% -5   1020.66        
Feb 19 15:15 NE 19 16.09 Cloudy OVC100 0 -3     79% -5   1020.66        
Feb 19 14:55 ENE 22 16.09 Clear   0 -3     78% -6   1021        
Feb 19 14:35 ENE 22 16.09 Clear   0 -3     77% -5   1021.33        
Feb 19 14:15 ENE 22 16.09 Mostly Cloudy BKN100 0 -4     74% -5   1021.67        
Feb 19 13:55 ENE 30 16.09 Clear   1 -4     73% -6   1021.33        
Feb 19 13:35 ENE 26 16.09 Mostly Cloudy BKN100 1 -4     71% -5   1021.67        
Feb 19 13:15 ENE 30 16.09 Partly Cloudy SCT100 1 -4     71% -6   1022.35        
Feb 19 12:55 ENE 22 16.09 Clear   1 -4     68% -4   1023.03        
Feb 19 12:35 ENE 26 16.09 Clear   1 -4     70% -5   1024.38        
Feb 19 12:15 ENE 24 16.09 Clear   1 -4     69% -5   1024.72        
Feb 19 11:55 ENE 26 16.09 Partly Cloudy SCT110 0 -5     70% -6   1025.4        
Feb 19 11:35 E 22 16.09 Clear   0 -5     69% -5   1026.41        
Feb 19 11:15 E 22 16.09 Clear   0 -5     71% -6   1027.09        
Feb 19 10:55 E 22 16.09 Clear   -1 -5     74% -7   1027.77        
Feb 19 10:35 E 15 16.09 Clear   -2 -5     79% -6   1028.11        
Feb 19 10:15 ENE 20 16.09 Clear   -2 -5     82% -8   1028.11        
Feb 19 09:55 ENE 22 16.09 Clear   -2 -5     83% -8   1028.11        
Feb 19 09:35 E 24 16.09 Cloudy OVC110 -3 -5     85% -9   1028.45        
Feb 19 09:15 ENE 15 16.09 Clear   -3 -5     89% -8   1028.78        
Feb 19 08:55 ENE 24 16.09 Clear   -4 -5     90% -10   1028.78        
Feb 19 08:35 NE 20 16.09 Clear   -4 -5     91% -10   1029.8        
Feb 19 08:15 NE 17 16.09 Clear   -4 -5     93% -10   1029.8        
Feb 19 07:55 NE 15 16.09 Clear   -4 -5     95% -10   1029.8        
Feb 19 07:35 NE 9 16.09 Clear CLR -5 -5     95% -8   1030.14        
Feb 19 07:15 NE 15 16.09 Clear   -5 -5     94% -10   1030.14        
Feb 19 06:55 ENE 13 16.09 Clear   -5 -6     93% -10   1030.48        
Feb 19 06:35 ENE 15 16.09 Clear   -5 -6     93% -10   1030.48        
Feb 19 06:15 NE 22 16.09 Clear   -5 -6     93% -11   1030.14        
Feb 19 05:55 ENE 20 16.09 Clear   -5 -6     94% -11   1030.48        
Feb 19 05:35 ENE 19 16.09 Clear CLR -5 -6     95% -11   1030.48        
Feb 19 05:15 ENE 19 16.09 Clear   -5 -6     96% -11   1030.48        
Feb 19 04:55 ENE 13 16.09 Clear CLR -5 -6     96% -10   1030.82        
Feb 19 04:35 ENE 13 16.09 Clear   -5 -6     95% -10   1031.16        
Feb 19 04:15 ENE 11 16.09 Clear   -5 -6     94% -10   1031.16        
Feb 19 03:55 ENE 13 16.09 Clear   -5 -6     93% -10   1031.49        
Feb 19 03:35 ENE 17 16.09 Clear   -5 -6     93% -11   1031.49        
Feb 19 03:15 ENE 15 16.09 Clear   -5 -6     92% -10   1031.49        
Feb 19 02:55 ENE 19 16.09 Clear   -5 -6     90% -11   1031.49        
Feb 19 02:35 ENE 22 16.09 Clear   -5 -6     89% -11   1031.49        
Feb 19 02:10 ENE 17 16.09 Clear   -5 -6     90% -10   1031.83        
Feb 19 01:55 ENE 19 16.09 Clear   -5 -6     89% -11   1032.17        
Feb 19 01:35 ENE 17 16.09 Cloudy OVC100 -5 -6     89% -10   1032.51        
Feb 19 01:15 ENE 19 16.09 Clear   -5 -6     89% -11   1032.17        
Feb 19 00:55 ENE 15 16.09 Clear   -5 -6     90% -10   1032.51        
Feb 19 00:35 ENE 11 16.09 Partly Cloudy SCT110 -5 -6     89% -9   1033.19        
Feb 19 00:15 ENE 13 16.09 Clear   -5 -6     89% -9   1033.19        
Feb 18 23:55 ENE 19 16.09 Clear   -5 -6     88% -11   1032.85        
Feb 18 23:35 ENE 17 16.09 Cloudy BKN100 OVC120 -4 -6     85% -10   1033.19        
Feb 18 23:15 ENE 13 16.09 Clear   -4 -6     86% -9   1033.19        
Feb 18 22:55 ENE 13 16.09 Clear   -4 -6     85% -9   1033.19        
Feb 18 22:35 ENE 13 16.09 Clear   -4 -6     87% -9   1033.19        
Feb 18 22:15 ENE 20 16.09 Clear   -4 -6     87% -10   1032.85        
Feb 18 21:55 ENE 17 16.09 Clear   -4 -6     87% -10   1032.85        
Feb 18 21:35 NE 13 16.09 Clear   -4 -6     86% -9   1032.85        
Feb 18 21:15 NE 11 16.09 Clear   -4 -6     86% -9   1032.85        
Feb 18 20:55 NNE 17 16.09 Clear   -4 -6     85% -10   1032.85        
Feb 18 20:35 NNE 17 16.09 Clear   -4 -6     85% -10   1032.85        
Feb 18 20:15 NNE 15 16.09 Clear   -4 -7     83% -9   1032.85        
Feb 18 19:55 NE 11 16.09 Clear   -4 -6     83% -9   1033.19        
Feb 18 19:35 NNE 13 16.09 Mostly Cloudy BKN100 -4 -7     83% -9   1032.85        
Feb 18 19:15 NE 17 16.09 Clear   -4 -6     82% -9   1032.85        
Feb 18 18:55 NE 15 16.09 Clear   -4 -6     82% -9   1032.51        
Feb 18 18:35 NE 17 16.09 Clear   -3 -6     81% -9   1032.17        
Feb 18 18:15 NNE 17 16.09 Clear   -3 -7     77% -9   1031.83        
Feb 18 17:55 NNE 17 16.09 Clear   -3 -6     77% -8   1031.83        
Feb 18 17:35 N 13 16.09 Partly Cloudy SCT110 -3 -7     75% -7   1031.83        
Feb 18 17:15 N 11 16.09 Clear   -3 -7     73% -7   1032.17        
Feb 18 16:55 N 9 16.09 Clear   -2 -7     71% -6   1031.83        
Feb 18 16:35 NNE 11 16.09 Clear   -2 -7     70% -6   1031.83        
Feb 18 16:15 NNE 15 16.09 Clear CLR -2 -7     67% -7   1032.17        
Feb 18 15:55 NNE 13 16.09 Clear   -2 -7     66% -6   1032.17        
Feb 18 15:35 NNE 9 16.09 Clear   -1 -7     67% -5   1032.17        
Feb 18 15:15 NNE 15 16.09 Clear   -2 -7     66% -6   1031.83        
Feb 18 14:55 NNW 11 16.09 Clear   -2 -7     68% -6   1031.83        
Feb 18 14:35 N 15 16.09 Clear   -2 -8     65% -7   1031.83        
Feb 18 14:15 N 11 16.09 Clear   -2 -8     66% -6   1032.17        
Feb 18 13:55 NNE 13 16.09 Clear   -2 -7     67% -6   1032.17        
Feb 18 13:35 N 17 16.09 Clear   -2 -7     68% -7   1031.49        
Feb 18 13:15 N 15 16.09 Clear   -2 -7     69% -7   1031.83        
Feb 18 12:55 NNW 17 16.09 Clear   -2 -7     72% -8   1032.17        
Feb 18 12:35 N 17 16.09 Clear   -2 -7     69% -7   1032.17        
Feb 18 12:15 N 19 16.09 Clear   -3 -7     71% -9   1032.17        
Feb 18 11:55 NNW 15 16.09 Clear   -3 -8     72% -9   1032.51        
Feb 18 11:35 NW 15 16.09 Clear   -4 -8     73% -9   1032.51        
Feb 18 11:15 NNW 15 16.09 Clear   -4 -8     77% -10   1032.85        
Feb 18 10:55 NW 15 16.09 Clear   -5 -8     78% -10   1032.85        
Feb 18 10:35 NW 13 16.09 Clear   -5 -9     78% -10   1032.85        
Feb 18 10:15 NW 13 16.09 Clear   -6 -8     82% -11   1032.51        
Feb 18 09:55 NW 15 16.09 Clear   -6 -9     83% -12   1032.17        
Feb 18 09:35 NW 13 16.09 Clear   -7 -9     85% -12   1032.17        
Feb 18 09:15 NNW 15 16.09 Clear   -7 -9     87% -13   1031.83        
Feb 18 08:55 NNW 15 16.09 Clear   -8 -9     89% -14   1031.49        
Feb 18 08:35 NNW 13 16.09 Clear CLR -8 -9     91% -14   1031.16        
Feb 18 08:15 NNW 19 16.09 Clear CLR -9 -10     92% -16   1030.82        
Feb 18 07:50 NNW 15 16.09 Clear   -9 -10     95% -15   1030.14        
Feb 18 07:35 NNW 17 16.09 Clear   -9 -10     97% -16   1029.8        
Feb 18 07:15 NNW 19 16.09 Clear   -9 -10     97% -17   1029.12        
Feb 18 06:50 NNW 19 16.09 Clear   -9 -9     98% -16   1028.45        
Feb 18 06:35 NNW 19 16.09 Clear   -9 -9     98% -16   1028.45        
Feb 18 06:15 NNW 19 16.09 Clear   -9 -9     99% -16   1028.11        
Feb 18 05:55 NNW 13 16.09 Clear   -9 -9     98% -15   1028.11        
Feb 18 05:35 NW 13 16.09 Clear   -9 -9     98% -15   1028.45        
Feb 18 05:15 NW 15 16.09 Clear   -9 -9     97% -15   1028.11        
Feb 18 04:55 NW 19 16.09 Clear   -9 -9     98% -16   1027.77        
Feb 18 04:35 WNW 15 16.09 Clear   -9 -9     98% -15   1027.43        
Feb 18 04:15 NW 13 16.09 Clear   -8 -9     97% -14   1026.75        
Feb 18 03:55 NW 13 16.09 Clear   -8 -9     95% -14   1026.41        
Feb 18 03:35 NW 13 16.09 Clear   -8 -9     96% -14   1026.08        
Feb 18 03:15 NW 11 16.09 Clear   -8 -9     94% -13   1025.74        
Feb 18 02:55 NNW 13 16.09 Clear   -8 -9     94% -14   1025.74        
Feb 18 02:35 NW 11 16.09 Clear CLR -8 -9     95% -13   1025.74        
Feb 18 02:15 NNW 11 16.09 Clear   -8 -9     95% -13   1025.4        
Feb 18 01:55 NW 9 16.09 Clear   -8 -9     95% -13   1025.4        
Feb 18 01:35 NNW 11 16.09 Clear CLR -8 -8     95% -13   1025.06        
Feb 18 01:15 NW 9 16.09 Clear CLR -8 -9     96% -13   1025.4        
Feb 18 00:55 NW 6 16.09 Clear   -8 -9     95% -11   1025.06        
Feb 18 00:35 NNW 9 16.09 Clear   -7 -9     90% -12   1025.06        
Feb 18 00:15 NW 11 16.09 Clear   -7 -9     87% -12   1025.06        
Feb 17 23:55 NW 9 16.09 Clear   -7 -8     88% -11   1024.72        
Feb 17 23:35 NW 11 16.09 Clear CLR -6 -9     84% -11   1024.38        
Feb 17 23:15 NW 17 16.09 Clear   -6 -8     83% -12   1024.38        
Feb 17 22:55 NW 19 16.09 Clear   -6 -8     86% -13   1024.04        
Feb 17 22:35 WNW 13 16.09 Clear   -6 -8     86% -11   1024.04        
Feb 17 22:15 NW 13 16.09 Clear   -6 -8     83% -11   1023.71        
Feb 17 21:55 NW 13 16.09 Clear   -6 -8     81% -11   1023.03        
Feb 17 21:35 NW 22 16.09 Clear   -5 -8     79% -12   1022.69        
Feb 17 21:15 NW 19 16.09 Clear   -5 -8     77% -11   1022.01        
Feb 17 20:55 NW 17 16.09 Clear   -5 -8     82% -11   1022.01        
Feb 17 20:35 NW 15 16.09 Clear CLR -5 -8     81% -10   1021.67        
Feb 17 20:15 NW 19 16.09 Clear   -5 -8     78% -11   1021        
Feb 17 19:55 NW 19 16.09 Clear   -4 -7     78% -10   1020.66        
Feb 17 19:35 NW 19 16.09 Mostly Cloudy BKN026 -4 -7     80% -10   1020.32        
Feb 17 19:15 WNW 19 16.09 Clear   -4 -7     80% -10   1019.98        
Feb 17 18:55 WNW 19 16.09 Clear   -4 -7     78% -10   1019.64        
Feb 17 18:35 WNW 26 16.09 Clear   -4 -7     77% -11   1019.3        
Feb 17 18:15 NW 22 16.09 Clear   -3 -7     74% -9   1018.29        
Feb 17 17:55 WNW 22 16.09 Clear   -3 -7     73% -9   1017.95        
Feb 17 17:35 NW 26 16.09 Partly Cloudy SCT030 -2 -7     68% -8   1017.27        
Feb 17 17:15 WNW 26 16.09 Clear   -1 -7     66% -8   1017.27        
Feb 17 16:55 WNW 20 16.09 Clear   -1 -6     65% -6   1016.93        
Feb 17 16:35 WNW 22 16.09 Clear   0 -7     63% -6   1016.59        
Feb 17 16:15 NW 31 16.09 Clear   0 -7     62% -7   1016.26        
Feb 17 15:55 WNW 28 16.09 Clear CLR 0 -6     62% -6   1015.92        
Feb 17 15:35 WNW 33 16.09 Clear and Windy   0 -6     64% -7   1015.58        
Feb 17 15:15 NW 26 16.09 Clear   0 -6     64% -6   1015.58        
Feb 17 14:55 WNW 31 16.09 Clear   0 -6     66% -6   1015.58        
Feb 17 14:35 WNW 24 16.09 Clear   0 -5     67% -5   1015.24        
Feb 17 14:15 WNW 30 16.09 Clear   0 -6     66% -6   1015.24        
Feb 17 13:55 W 26 16.09 Clear   0 -6     67% -6   1014.9        
Feb 17 13:35 WNW 24 16.09 Partly Cloudy SCT028 -1 -6     68% -6   1015.24        
Feb 17 13:15 WNW 19 16.09 Partly Cloudy SCT026 -1 -5     73% -6   1014.9        
Feb 17 12:55 W 20 16.09 Clear   -2 -5     75% -7   1014.9        
Feb 17 12:35 WNW 20 16.09 Partly Cloudy SCT020 -2 -5     78% -8   1014.9        
Feb 17 12:15 W 20 16.09 Clear   -3 -5     84% -9   1014.9        
Feb 17 11:55 WNW 26 16.09 Clear   -3 -5     85% -9   1014.9        
Feb 17 11:35 WNW 24 16.09 Clear   -3 -5     86% -10   1014.9        
Feb 17 11:15 WNW 24 16.09 Clear   -4 -5     89% -11   1014.56        
Feb 17 10:55 WNW 26 16.09 Clear   -4 -5     91% -11   1014.56        
Feb 17 10:35 WNW 26 16.09 Cloudy OVC018 -4 -5     91% -11   1014.56        
Feb 17 10:15 W 19 16.09 Cloudy OVC018 -4 -5     92% -10   1014.56        
Feb 17 09:55 WNW 22 16.09 Clear   -5 -6     91% -11   1014.22        
Feb 17 09:30 W 20 16.09 Mostly Cloudy BKN018 -5 -6     93% -11   1013.88        
Feb 17 09:15 WNW 22 16.09 Clear   -5 -6     94% -12   1013.55        
Feb 17 08:55   16.09 Clear   -5 -5     95%     1013.21        
Feb 17 08:35 WNW 28 16.09 Partly Cloudy SCT016 -5 -5     96% -12   1012.53        
Feb 17 08:15 WNW 28 16.09 Clear   -5 -5     98% -12   1011.85        
Feb 17 07:55 WNW 19 16.09 Clear   -5 -5     99% -11   1011.51        
Feb 17 07:35 WNW 20 16.09 Cloudy OVC016 -5 -5     100% -11   1011.51        
Feb 17 07:15 WNW 28 16.09 Clear   -4 -4     100% -12   1011.18        
Feb 17 06:55 WNW 19 16.09 Clear   -4 -4     100% -10   1010.84        
Feb 17 06:40 WNW 20 16.09 Cloudy BKN020 OVC041 -4 -4     100% -10   1010.5        
Feb 17 06:15 WNW 22 16.09 Clear   -4 -4     100% -10   1009.82        
Feb 17 05:55 WNW 19 16.09 Clear   -4 -4     100% -10   1009.82        
Feb 17 05:35 WNW 13 11.27 Clear   -4 -4     100% -8   1009.48        
May 15 11:15 W 13 16.09 Clear   22 17     72%   23 1016.26        
May 15 05:35 Calm 16.09 Clear   16 16     97%     1012.87        
Notice The following observation data may not be complete
May 14 16:15   4.83 Clear     14      %     1010.16        
May 14 13:35 SSW 11 16.09 Clear   29 20     58%   31 1013.21        
May 14 06:15 SSE 13 16.09 Clear   21 18     81%     1013.21        
May 14 01:55 Calm 16.09 Clear   21 17     80%     1014.56        
May 13 23:15 Calm 16.09 Clear   22 17     73%   22 1015.24        
May 13 12:15 S 30 16.09 Clear   29 19     56%   31 1015.58        
May 13 09:55 S 24 16.09 Clear   25 19     72%   25 1015.92        
May 13 01:15 S 19 16.09 Clear   22 18     76%   22 1014.9        
May 12 18:35 S 19 16.09 Clear   27 19     63%   28 1012.53        
May 12 13:15 S 31 16.09 Clear   27 19     60%   28 1012.87        
May 12 05:15 SSE 19 16.09 Clear   21 16     72%   21 1010.5        
May 12 03:15 SSE 15 16.09 Clear   21 16     74%   21 1011.18        
May 11 08:35   16.09 Clear   21 15     69%   21 1007.79